Location: Frizzleburg
(41.0764°N, 80.4548°W)
Time: 18:24:03
(UTC+00:00)

Cosmos 2100 Rocket - Pass Details

Date: 17 November 2019
Orbit: 955 x 1001 km, 82.9° (Epoch: 09 December)

Event Time Altitude Azimuth Distance (km) Brightness Sun altitude
Rises 09:51:55 0° 174° (S) 3,653 7.1 -26.2°
Reaches altitude 10° 09:54:27 10° 171° (S) 2,704 6.4 -25.8°
Maximum altitude 10:00:31 61° 93° (E) 1,087 4.4 -24.6°
Drops below altitude 10° 10:06:34 10° 14° (NNE) 2,698 6.4 -23.5°
Sets 10:09:06 0° 12° (NNE) 3,646 7.1 -23.0°
